Regional Weather Roundup
Issued by NWS Northern Indiana

Home | Current Version | Previous Version | Text Only | Print | Product List | Glossary On
Versions: 1 2 3 4 5 6 7 8 9 10 11 12 13 14 15 16 17 18 19 20 21 22 23 24 25 26 27 28 29 30 31 32 33 34 35 36 37 38 39 40 41 42 43 44 45 46 47 48 49 50
000
ASUS43 KIWX 240610
RWRIWX

KIWX WEATHER ROUNDUP
NATIONAL WEATHER SERVICE NORTHERN INDIANA
200 AM EDT THU AUG 24 2017

NOTE: "FAIR" INDICATES FEW OR NO CLOUDS BELOW 12,000 FEET WITH NO
SIGNIFICANT WEATHER AND/OR OBSTRUCTIONS TO VISIBILITY.

* THESE STATIONS ARE NOT UNDER NWS QUALITY CONTROL. THEY ALSO MAY NOT
  REPORT WEATHER SUCH AS PRECIPITATION OR FOG.

INZ001>027-240700-
NORTHERN INDIANA

CITY           SKY/WX    TMP DP  RH WIND       PRES   REMARKS
GARY*          CLEAR     55  52  90 CALM      30.05S FOG
VALPARAISO     CLEAR     56  54  93 CALM      30.05S
6HR MIN TEMP:  56; 6HR MAX TEMP:  69;

MICHIGAN CITY* CLEAR     54  54 100 CALM      30.05S FOG
LAPORTE*       CLEAR     53  52  95 CALM      30.05S
6HR MIN TEMP:  52; 6HR MAX TEMP:  66;

KNOX*          MOCLDY    54  54 100 CALM      30.04S
SOUTH BEND     PTCLDY    54  53  97 CALM      30.06R
6HR MIN TEMP:  53; 6HR MAX TEMP:  66;

GOSHEN         CLEAR     52  49  89 CALM      30.04S
6HR MIN TEMP:  52; 6HR MAX TEMP:  68;

MONTICELLO*    PTCLDY    57  56  95 CALM      30.04S
6HR MIN TEMP:  58; 6HR MAX TEMP:  69;

LOGANSPORT*    PTCLDY    55  54  94 CALM      30.05S
ROCHESTER*     MOCLDY    61  57  88 CALM      30.05S
WARSAW*        CLEAR     54  52  94 CALM      30.05R
AUBURN*        PTCLDY    54  48  82 CALM      30.04S
FORT WAYNE     PTCLDY    54  49  83 CALM      30.04S
6HR MIN TEMP:  54; 6HR MAX TEMP:  70;

HUNTINGTON*    CLEAR     54  53  95 CALM      30.04S
6HR MIN TEMP:  54; 6HR MAX TEMP:  68;

PERU/GRISSOM   MOCLDY    61  55  82 CALM      30.03S
6HR MIN TEMP:  59; 6HR MAX TEMP:  70;


$$
INZ028>050-240700-
CENTRAL INDIANA

CITY           SKY/WX    TMP DP  RH WIND       PRES   REMARKS
LAFAYETTE      CLEAR     57  57 100 CALM      30.04S
6HR MIN TEMP:  57; 6HR MAX TEMP:  71;

KOKOMO*        CLOUDY    60  57  89 CALM      30.05S
6HR MIN TEMP:  57; 6HR MAX TEMP:  72;

MUNCIE*        MOCLDY    56  53  90 CALM      30.04S
6HR MIN TEMP:  55; 6HR MAX TEMP:  69;

INDIANAPOLIS   CLEAR     62  54  74 NE5       30.03S
6HR MIN TEMP:  61; 6HR MAX TEMP:  72;


$$
MIZ043>046-050>051-056>058-064>065-071>073-077>080-240700-
SOUTHWEST LOWER MICHIGAN

CITY           SKY/WX    TMP DP  RH WIND       PRES   REMARKS
BATTLE CREEK   CLEAR     55  52  89 CALM      30.05R
6HR MIN TEMP:  54; 6HR MAX TEMP:  67;

BENTON HARBOR  CLEAR     53  50  89 CALM      30.04R
6HR MIN TEMP:  52; 6HR MAX TEMP:  67;

COLDWATER*     CLEAR     51  51 100 CALM      30.04S
6HR MIN TEMP:  51; 6HR MAX TEMP:  66;

HILLSDALE*     CLEAR     52  50  93 CALM      30.03S
HOLLAND        PTCLDY    53  51  93 CALM      30.05S
6HR MIN TEMP:  52; 6HR MAX TEMP:  67;

GRAND RAPIDS   CLEAR     55  51  86 CALM      30.04S
6HR MIN TEMP:  55; 6HR MAX TEMP:  67;

KALAMAZOO      CLEAR     55  49  80 CALM      30.04S
6HR MIN TEMP:  55; 6HR MAX TEMP:  68;

STURGIS*       CLEAR     52  51  94 CALM      30.04S
6HR MIN TEMP:  51; 6HR MAX TEMP:  65;

THREE RIVERS*  FAIR      54  51  92 CALM      30.05S
6HR MIN TEMP:  53; 6HR MAX TEMP:  67;


$$
OHZ001>008-015>018-024>025-240700-
NORTHWEST OHIO

CITY           SKY/WX    TMP DP  RH WIND       PRES   REMARKS
WAUSEON*       CLOUDY    54  52  94 NW6       30.02S
DEFIANCE       MOCLDY    57  50  77 NW5       30.03S
6HR MIN TEMP:  56; 6HR MAX TEMP:  69;

FINDLAY        CLEAR     57  50  77 W6        30.00S
6HR MIN TEMP:  57; 6HR MAX TEMP:  71;

TOLEDO EXPRESS PTCLDY    57  53  86 NW5       30.01R
6HR MIN TEMP:  57; 6HR MAX TEMP:  70;

TOLEDO METCALF PTCLDY    62  53  72 N8        30.01R
6HR MIN TEMP:  59; 6HR MAX TEMP:  71;

LIMA           CLEAR     57  51  80 NW7       30.03R
6HR MIN TEMP:  56; 6HR MAX TEMP:  70;


$$
AND FOR LAKE MICHIGAN COASTAL AND OPEN LAKE BUOY OBSERVATIONS

STATION/POSITION TEMP    WIND        PRES    VSBY  WAVE
                 AIR SEA DIR/SP/G                  HT/PER
                 (F)     (DEG/KT/KT) (MB)    (MI)  (FT/S)
CALUMET HARBOR    65     220/  2/  3 1016.5S
MICHIGAN CITY     61     130/  5/  5   N/A
BURNS HARBOR      63     190/  3/  4 1017.6S
SAINT JOSEPH      60     120/  1/  2 1017.9
SOUTH LAKE BUOY   67 71  150/  2/  4 1017.1R         1/ 4
4 MI NW BRIDGMAN  66 75  150/  4/  6 1017.1          2/ 5
MICHIGAN CITY     66 73  150/  4/  6   N/A           2/ 6

$$
&&




USA.gov is the U.S. government's official web portal to all federal, state and local government web resources and services.